Location: Unspecified
(41.1850°N, 73.2650°W)
Time: 08:58:20
(UTC+00:00)

BlueWalker 3 - Pass Details

Date: 24 February 2026
Orbit: 451 x 458 km, 53.2° (Epoch: 6 March)

Event Time Altitude Azimuth Distance (km) Brightness Sun altitude
Exits shadow 09:54:52 15° 185° (S) 1,332 4.0 -19.6°
Maximum altitude 09:57:12 28° 132° (SE) 886 3.6 -19.1°
Drops below altitude 10° 10:00:19 10° 72° (ENE) 1,597 5.6 -18.5°
Sets 10:02:38 0° 60° (ENE) 2,473 6.6 -18.1°
